Temp
87 94 97 88 75 70 73 74 83 80 81 85 78 83 82 82 78 70 93 93 90 92 86 87 82 83 83 83 83 83 83 84 84 84 84 84 84 84 84 83 84 84 84 84 84 84 84 84 84
95 88 90 86 73 61 68 79 77 81 83 86 85 81 82 78 83 82 86 91 94 93 84 89 82 83 83 83 83 84 84 84 83 83 84 84 83 83 84 84 84 84 84 84 84 85 85 84 84
91 89 85 77 68 67 70 79 79 82 84 84 82 86 83 79 81 86 91 93 96 95 94 83 82 82 83 83 84 84 84 84 83 83 84 84 83 84 84 84 84 84 84 84 84 85 85 84 84
92 89 86 74 70 73 79 81 83 81 84 85 84 79 84 86 86 90 91 92 93 94 96 84 83 82 83 84 84 83 83 83 82 83 83 83 83 84 84 84 84 84 84 84 84 84 84 84 84
94 88 79 71 71 77 82 84 84 81 81 82 83 78 79 85 90 92 90 90 88 93 97 92 83 83 83 83 83 84 83 83 80 83 84 84 84 84 84 84 83 84 84 84 84 84 84 84 84
87 87 74 69 73 78 83 85 84 83 82 82 81 81 81 88 88 91 93 90 90 92 94 89 84 82 83 83 83 83 84 83 83 83 83 83 84 83 84 84 84 84 84 84 84 84 84 84 84
83 81 71 73 73 74 80 87 84 83 82 82 86 79 82 85 90 92 91 87 91 92 90 80 88 88 83 83 82 82 82 82 83 82 84 84 84 84 85 85 85 85 84 84 84 84 84 84 85
90 84 74 75 74 73 83 85 87 84 82 89 88 81 79 85 90 92 91 91 89 91 90 87 86 88 90 81 82 82 83 83 84 83 83 83 84 84 84 84 85 85 84 84 84 84 84 84 84
89 81 74 75 76 77 85 82 87 89 86 86 86 86 89 89 90 89 88 90 90 90 92 94 93 86 85 84 87 84 83 84 83 84 83 85 91 91 91 85 85 84 84 84 84 84 84 84 85
85 79 76 82 84 81 83 83 84 84 84 83 82 86 89 88 88 87 87 87 88 89 91 92 91 91 90 89 86 88 86 77 79 87 88 86 89 94 94 88 84 84 84 84 84 84 85 85 101
84 77 82 84 86 84 84 83 87 84 81 86 84 83 85 86 87 88 89 90 91 91 92 92 91 90 89 87 88 88 85 76 77 87 86 87 93 93 96 93 93 94 86 97 93 95 100 96 100
80 84 83 84 84 84 82 85 84 84 85 90 90 88 87 86 87 88 89 89 89 89 90 92 91 88 89 88 87 76 75 75 76 85 86 90 92 93 93 96 94 93 98 95 97 101 96 96 97
82 83 83 85 86 84 84 82 83 83 87 91 90 88 87 87 88 90 90 90 89 87 89 85 89 86 86 84 77 74 73 75 78 83 87 93 93 91 93 93 95 97 99 99 98 98 98 97 99
86 84 83 84 84 84 81 82 83 86 89 87 87 87 89 88 89 88 88 89 88 86 86 86 88 86 86 82 78 78 76 86 82 87 92 89 94 91 93 93 95 96 99 99 98 97 96 97 100
87 82 84 84 82 82 84 78 79 87 88 85 87 88 88 89 90 88 89 88 89 90 86 83 88 88 85 82 79 76 77 90 90 91 83 88 91 89 91 93 94 98 96 94 97 97 98 100 101
84 84 77 81 81 81 81 75 80 86 86 85 87 88 87 89 90 90 91 91 90 90 88 87 89 89 87 84 78 82 88 89 88 90 91 90 90 89 89 93 96 97 96 98 99 99 98 99 101
82 76 75 77 82 81 80 77 80 86 86 86 86 88 88 88 89 90 92 91 91 89 87 86 88 87 87 86 87 79 83 88 81 81 91 89 90 91 92 95 96 93 97 98 97 99 96 97 98
75 75 76 75 81 81 80 80 85 86 85 85 87 88 88 89 89 92 92 92 92 90 88 86 87 86 85 84 86 89 88 88 88 91 92 90 92 91 91 94 92 93 97 97 97 91 96 94 95
79 77 76 81 84 79 81 82 84 87 85 85 86 88 89 90 93 93 93 93 91 90 87 86 85 84 82 83 85 86 85 81 87 90 88 89 91 91 90 95 92 93 93 92 93 95 93 96 96
80 77 77 81 81 80 81 81 87 88 86 87 86 88 89 91 92 92 92 93 92 89 87 85 84 83 84 86 86 88 87 80 88 88 84 90 90 90 91 91 92 91 95 90 91 90 93 96 95
80 78 78 76 81 84 81 80 84 86 87 87 89 91 92 92 91 91 91 92 92 89 87 85 84 83 84 85 84 78 80 79 82 86 81 90 90 91 90 90 91 90 91 93 90 91 88 90 95
75 85 82 77 75 71 80 69 81 86 86 86 87 89 91 92 93 93 92 92 93 91 90 86 84 83 84 84 80 82 75 82 76 85 85 89 90 91 91 90 90 89 93 90 91 93 90 89 91
78 86 81 79 76 76 77 73 80 85 84 88 92 90 93 94 94 93 93 93 95 93 91 89 85 83 84 83 85 84 83 88 90 91 90 87 89 90 92 90 90 89 91 90 89 89 88 92 90
86 81 80 80 78 68 77 76 78 85 84 88 94 95 94 94 95 94 96 95 94 95 92 90 85 82 83 83 83 82 83 86 88 88 89 91 93 92 90 91 89 89 90 89 90 89 88 88 89
82 79 68 66 67 66 79 74 78 88 91 92 93 95 97 96 94 94 93 93 93 92 91 90 86 82 83 83 83 83 84 83 84 86 89 90 93 93 91 88 87 90 88 90 90 88 88 88 88
79 80 71 60 65 71 76 69 79 91 95 96 95 97 97 96 98 95 94 93 91 91 91 90 87 84 84 84 83 83 84 87 88 88 90 91 92 94 93 90 90 88 89 89 88 90 90 90 90
80 73 85 76 79 70 75 80 88 92 91 94 95 95 94 94 95 95 95 94 92 91 90 90 88 86 86 87 85 84 84 85 88 88 88 90 89 92 91 90 90 90 90 89 88 85 88 89 89
83 87 74 75 61 60 71 73 75 82 86 91 92 93 95 94 93 94 94 94 94 93 92 92 91 88 88 89 88 87 86 85 87 87 85 87 89 88 89 89 90 90 89 89 88 88 90 86 90
78 76 79 81 77 66 64 72 88 85 89 90 93 94 94 93 92 92 93 94 95 93 93 91 91 90 89 89 89 88 88 88 87 88 86 86 87 87 86 87 88 89 89 89 87 86 87 86 85
86 82 82 72 68 74 72 73 93 91 93 94 93 95 93 90 93 92 92 92 93 92 93 92 91 91 90 86 84 87 88 89 89 87 88 87 86 87 87 86 86 87 88 88 87 86 89 87 86
MSLP
1011.54 1010.99 1010.82 1010.41 1009.66 1008.66 1007.01 1007.37 1007.22 1007.28 1007.53 1008.43 1009.28 1008.76 1008.89 1009.60 1009.83 1011.18 1011.94 1012.76 1013.68 1014.09 1015.31 1015.68 1016.02 1016.28 1016.45 1016.58 1016.72 1016.91 1017.19 1017.26 1017.38 1017.61 1017.66 1017.68 1017.82 1017.94 1018.02 1018.10 1018.29 1018.27 1018.28 1018.38 1018.43 1018.47 1018.57 1018.65 1018.79
1010.68 1011.18 1010.63 1009.41 1008.47 1008.36 1008.00 1007.71 1007.61 1008.15 1008.64 1008.97 1009.25 1009.45 1009.30 1009.90 1011.29 1012.04 1012.37 1013.04 1013.26 1014.07 1015.31 1015.39 1016.01 1016.28 1016.47 1016.73 1016.80 1017.00 1017.24 1017.37 1017.59 1017.80 1017.82 1017.89 1018.08 1018.08 1018.22 1018.42 1018.47 1018.40 1018.58 1018.71 1018.77 1018.79 1018.80 1018.92 1019.06
1010.98 1010.97 1009.34 1008.90 1008.58 1007.71 1007.75 1008.02 1008.33 1008.65 1009.00 1008.98 1009.22 1009.63 1009.87 1010.69 1012.03 1011.96 1012.31 1012.88 1012.98 1013.88 1014.60 1015.72 1016.13 1016.34 1016.54 1016.80 1017.02 1017.25 1017.47 1017.64 1017.73 1017.94 1017.97 1018.04 1018.21 1018.20 1018.45 1018.59 1018.68 1018.72 1018.84 1018.97 1019.06 1019.10 1019.18 1019.25 1019.32
1010.35 1010.03 1009.43 1008.37 1007.87 1008.36 1007.57 1008.01 1008.32 1008.66 1009.11 1009.42 1009.49 1009.62 1010.84 1011.64 1011.85 1012.19 1013.04 1013.15 1013.19 1013.74 1014.38 1015.90 1016.41 1016.58 1016.85 1016.98 1017.22 1017.44 1017.65 1017.80 1017.86 1018.20 1018.12 1018.25 1018.34 1018.48 1018.58 1018.74 1018.86 1019.10 1019.10 1019.21 1019.32 1019.39 1019.46 1019.48 1019.63
1010.01 1009.19 1008.05 1008.14 1008.05 1008.11 1008.08 1008.19 1008.29 1008.46 1009.02 1009.35 1009.77 1009.87 1010.92 1012.08 1012.36 1012.76 1013.47 1013.77 1014.01 1014.07 1014.11 1015.47 1016.38 1016.71 1016.77 1017.17 1017.35 1017.58 1017.75 1017.95 1018.19 1018.27 1018.29 1018.39 1018.49 1018.68 1018.76 1018.93 1019.19 1019.25 1019.41 1019.45 1019.47 1019.56 1019.57 1019.62 1019.66
1008.36 1008.65 1007.54 1007.58 1007.89 1008.14 1008.08 1008.18 1008.27 1008.44 1009.04 1009.57 1009.76 1010.08 1011.08 1012.34 1012.60 1012.85 1013.27 1013.68 1013.88 1014.40 1014.71 1015.45 1016.44 1016.78 1017.02 1017.34 1017.48 1017.57 1017.89 1018.08 1018.16 1018.29 1018.56 1018.58 1018.79 1018.96 1018.93 1019.16 1019.39 1019.47 1019.57 1019.56 1019.66 1019.76 1019.80 1019.76 1019.72
1008.14 1007.84 1007.97 1007.71 1007.96 1008.11 1008.00 1008.14 1008.08 1008.32 1008.80 1009.16 1009.80 1009.74 1011.16 1012.12 1012.63 1013.05 1013.49 1014.27 1014.32 1014.44 1015.41 1016.46 1016.09 1016.61 1017.11 1017.53 1017.66 1017.82 1018.12 1018.15 1018.32 1018.44 1018.54 1018.73 1018.91 1019.05 1019.03 1019.30 1019.52 1019.61 1019.63 1019.67 1019.71 1019.82 1019.86 1019.72 1019.71
1008.22 1007.94 1007.71 1008.04 1007.67 1007.96 1008.08 1008.02 1008.34 1008.46 1008.84 1009.63 1009.93 1009.44 1010.51 1011.86 1012.80 1013.17 1013.59 1014.04 1014.42 1014.76 1015.34 1016.06 1016.26 1016.23 1016.58 1017.52 1017.76 1018.06 1018.34 1018.27 1018.50 1018.65 1018.81 1018.85 1018.99 1019.21 1019.25 1019.41 1019.63 1019.74 1019.72 1019.74 1019.72 1019.77 1019.83 1019.65 1019.59
1008.80 1007.43 1007.16 1007.48 1007.42 1007.77 1008.04 1007.95 1008.50 1008.79 1008.94 1009.47 1010.00 1010.03 1010.40 1011.97 1012.81 1013.25 1013.66 1014.00 1014.44 1014.97 1015.10 1015.00 1015.62 1016.69 1017.23 1017.58 1017.71 1018.05 1018.31 1018.35 1018.57 1018.70 1018.88 1018.95 1018.45 1018.67 1018.80 1019.45 1019.73 1019.85 1019.79 1019.81 1019.72 1019.62 1019.64 1019.57 1019.14
1008.14 1007.49 1007.54 1007.89 1007.64 1007.79 1008.14 1008.07 1008.34 1008.57 1008.67 1009.23 1010.08 1010.69 1011.20 1012.17 1012.68 1012.84 1013.21 1013.58 1014.13 1014.63 1014.88 1015.08 1015.40 1015.95 1016.67 1017.22 1017.68 1017.88 1018.38 1018.65 1018.87 1018.59 1018.53 1018.91 1018.65 1018.17 1018.33 1019.35 1019.85 1019.85 1019.78 1019.73 1019.60 1019.46 1019.34 1019.20 1017.77
1007.94 1007.75 1007.87 1007.69 1007.90 1008.12 1007.99 1008.15 1008.23 1008.12 1008.21 1008.44 1009.16 1010.61 1011.46 1011.99 1012.41 1012.60 1012.89 1013.19 1013.63 1014.43 1014.96 1015.37 1015.79 1016.30 1016.91 1017.29 1017.66 1018.06 1018.59 1018.98 1019.07 1018.80 1018.80 1018.77 1018.27 1018.50 1018.29 1018.82 1018.98 1018.91 1019.41 1018.32 1018.67 1018.47 1017.81 1017.97 1017.67
1007.71 1007.84 1008.03 1008.01 1008.20 1008.04 1008.08 1008.34 1008.01 1008.22 1008.37 1008.67 1009.28 1010.45 1011.22 1011.65 1011.92 1012.26 1012.64 1013.14 1013.70 1014.42 1015.00 1015.34 1015.87 1016.55 1016.80 1017.21 1017.73 1018.71 1018.87 1019.03 1019.10 1019.06 1019.00 1018.55 1018.31 1018.39 1018.41 1018.19 1018.51 1018.76 1018.41 1018.57 1018.40 1017.83 1018.07 1017.89 1017.70
1007.39 1007.64 1008.05 1008.12 1007.95 1008.13 1008.49 1008.28 1008.21 1008.27 1008.79 1009.04 1009.64 1010.47 1010.94 1011.33 1011.76 1012.09 1012.66 1013.24 1013.84 1014.49 1015.08 1016.02 1016.06 1016.84 1017.10 1017.60 1018.59 1018.57 1019.00 1019.19 1019.30 1019.23 1018.83 1018.34 1018.15 1018.35 1018.39 1018.58 1018.40 1018.44 1018.34 1018.20 1018.17 1018.05 1017.84 1017.65 1017.17
1007.37 1007.53 1007.72 1007.92 1007.96 1008.10 1008.16 1008.06 1008.31 1008.05 1008.84 1009.24 1009.70 1010.17 1010.60 1011.07 1011.56 1012.18 1012.67 1013.15 1013.78 1014.49 1015.18 1015.85 1016.21 1016.96 1017.21 1017.97 1018.50 1018.44 1018.94 1018.49 1019.07 1018.74 1018.50 1018.73 1018.12 1018.47 1018.29 1018.49 1018.26 1018.18 1018.18 1018.12 1018.12 1018.09 1017.97 1017.54 1016.95
1007.26 1006.98 1007.16 1007.51 1007.89 1007.84 1008.10 1007.61 1007.67 1007.89 1008.62 1009.07 1009.37 1009.82 1010.26 1010.78 1011.43 1012.02 1012.61 1013.14 1013.71 1014.17 1015.04 1015.95 1016.14 1016.60 1017.14 1017.90 1018.41 1018.84 1019.00 1018.25 1018.16 1018.49 1019.12 1018.85 1018.46 1018.68 1018.56 1018.36 1018.26 1018.07 1018.24 1018.36 1018.05 1017.92 1017.66 1017.08 1016.81
1006.56 1006.63 1006.35 1007.27 1007.79 1008.07 1008.03 1006.68 1007.45 1007.99 1008.32 1008.54 1008.95 1009.46 1010.04 1010.45 1010.98 1011.70 1012.29 1012.84 1013.47 1013.83 1014.59 1015.40 1015.82 1016.15 1016.88 1017.40 1018.30 1018.34 1018.12 1018.21 1018.49 1018.69 1018.37 1018.55 1018.66 1018.65 1018.71 1018.18 1018.00 1018.17 1018.29 1017.94 1017.70 1017.71 1017.39 1017.11 1016.81
1006.04 1005.56 1006.18 1006.55 1007.54 1007.57 1007.54 1006.65 1007.47 1007.83 1007.99 1007.97 1008.52 1008.96 1009.55 1010.07 1010.63 1011.24 1011.85 1012.60 1013.12 1013.88 1014.65 1015.21 1015.65 1016.00 1016.48 1017.02 1017.41 1018.38 1018.35 1018.14 1018.81 1018.67 1018.10 1018.49 1018.49 1018.46 1018.24 1018.05 1018.08 1018.43 1018.02 1017.84 1017.77 1017.69 1017.83 1017.17 1017.01
1005.03 1005.73 1006.06 1006.23 1006.78 1007.01 1006.62 1006.22 1006.25 1007.02 1007.40 1007.45 1007.87 1008.31 1008.86 1009.28 1009.86 1010.60 1011.31 1012.03 1012.82 1013.75 1014.54 1015.14 1015.63 1015.96 1016.50 1017.00 1017.20 1017.23 1017.61 1018.07 1018.28 1018.01 1018.01 1018.32 1018.19 1018.34 1018.37 1018.18 1018.30 1018.28 1017.93 1017.87 1017.87 1018.18 1017.88 1017.84 1017.42
1006.15 1006.04 1005.92 1005.97 1006.32 1006.44 1005.63 1005.28 1005.30 1005.62 1006.51 1006.74 1007.05 1007.52 1007.94 1008.36 1009.00 1009.91 1010.74 1011.48 1012.32 1013.21 1014.16 1014.86 1015.37 1015.89 1016.56 1016.71 1016.73 1016.95 1017.34 1018.28 1018.04 1018.03 1018.37 1018.29 1018.26 1018.27 1018.38 1017.86 1018.21 1018.24 1018.08 1018.14 1018.22 1017.94 1017.91 1017.41 1017.55
1005.97 1005.77 1005.50 1005.76 1006.42 1006.18 1005.00 1004.36 1004.03 1004.41 1005.10 1005.63 1006.14 1006.58 1006.96 1007.46 1008.19 1009.18 1010.06 1010.74 1011.56 1012.56 1013.57 1014.49 1015.11 1015.74 1016.17 1016.39 1016.55 1016.64 1017.18 1018.19 1017.90 1018.00 1018.48 1018.09 1018.13 1018.24 1018.21 1018.17 1018.11 1018.25 1017.88 1018.42 1018.39 1018.38 1017.71 1017.56 1017.79
1005.67 1005.38 1005.27 1005.70 1005.93 1005.37 1004.88 1003.16 1002.83 1003.57 1004.25 1004.80 1005.24 1005.66 1005.97 1006.29 1007.20 1008.29 1009.25 1009.96 1010.85 1011.76 1012.75 1013.76 1014.70 1015.37 1015.89 1016.23 1016.89 1017.60 1017.79 1018.01 1018.08 1017.91 1018.28 1017.80 1017.91 1017.92 1018.17 1018.24 1018.19 1018.33 1018.14 1017.84 1018.47 1018.40 1018.38 1017.48 1017.68
1004.94 1005.06 1005.28 1005.59 1005.38 1004.27 1004.63 1002.95 1002.22 1002.25 1002.84 1003.54 1004.18 1004.50 1004.77 1005.32 1006.21 1007.14 1008.31 1009.25 1009.89 1010.86 1012.06 1013.13 1014.12 1014.92 1015.52 1016.02 1016.60 1016.57 1017.25 1016.94 1017.59 1017.33 1017.52 1017.39 1017.55 1017.62 1017.75 1018.02 1018.23 1018.38 1017.92 1018.20 1018.26 1018.19 1018.33 1018.36 1017.56
1005.10 1005.11 1005.31 1005.24 1004.88 1004.27 1003.42 1002.91 1001.42 1001.70 1001.63 1001.53 1001.89 1002.96 1003.73 1004.43 1005.21 1005.99 1007.01 1008.04 1008.91 1010.13 1011.18 1012.28 1013.52 1014.40 1014.87 1015.56 1015.76 1016.37 1016.53 1016.44 1016.55 1016.54 1016.56 1017.13 1017.17 1017.35 1017.42 1017.69 1017.96 1018.14 1018.09 1018.07 1018.25 1018.28 1018.37 1018.02 1017.88
1005.28 1005.32 1005.16 1004.99 1004.30 1003.08 1002.25 1001.93 1000.53 1000.34 1000.84 1000.83 1000.89 1001.28 1002.20 1003.17 1004.10 1005.13 1006.10 1007.11 1008.22 1009.32 1010.55 1011.50 1012.79 1013.66 1014.40 1015.13 1015.65 1015.82 1015.94 1015.84 1015.86 1016.23 1016.26 1016.32 1016.44 1016.82 1017.14 1017.28 1017.61 1017.75 1017.64 1017.85 1017.89 1018.05 1018.22 1018.22 1017.96
1004.98 1004.30 1003.62 1003.38 1002.66 1001.80 1001.64 1001.58 1000.60 1000.23 1000.19 1000.22 1000.24 1000.47 1000.97 1001.88 1003.06 1004.08 1005.09 1006.22 1007.44 1008.51 1009.71 1010.77 1011.96 1012.95 1013.74 1014.45 1015.04 1015.48 1015.66 1016.01 1016.01 1016.17 1016.09 1015.70 1015.62 1015.80 1016.22 1016.94 1017.22 1017.20 1017.45 1017.44 1017.49 1017.75 1017.89 1017.93 1017.83
1004.01 1003.63 1002.53 1001.59 1001.28 1000.75 1001.54 1000.87 1000.04 999.79 999.71 999.66 1000.03 1000.15 1000.47 1001.03 1001.84 1003.05 1004.29 1005.50 1006.72 1007.78 1009.02 1009.98 1011.06 1012.04 1012.87 1013.60 1014.16 1014.88 1015.38 1015.39 1015.61 1015.73 1015.67 1015.64 1015.51 1015.37 1015.70 1016.29 1016.59 1016.86 1016.94 1017.16 1017.33 1017.43 1017.53 1017.34 1017.50
1002.77 1003.07 1002.61 1001.84 1001.23 1001.44 1000.67 1000.00 999.58 999.22 999.10 998.83 999.11 999.56 1000.05 1000.76 1001.42 1002.33 1003.55 1004.90 1006.08 1007.07 1008.12 1009.07 1010.09 1011.13 1011.84 1012.46 1013.35 1014.03 1014.64 1014.83 1014.66 1015.00 1015.38 1015.62 1015.70 1015.55 1015.72 1015.93 1016.17 1016.23 1016.44 1016.66 1016.88 1017.55 1017.23 1017.17 1017.26
1002.63 1002.39 1002.18 1001.98 1001.13 1000.48 999.87 999.26 999.00 999.11 998.80 998.64 998.78 999.26 999.79 1000.58 1001.36 1002.08 1003.01 1004.22 1005.40 1006.49 1007.40 1008.29 1009.24 1010.09 1010.75 1011.46 1012.27 1012.93 1013.50 1014.08 1014.26 1014.56 1014.90 1015.09 1015.33 1015.75 1015.72 1015.82 1015.89 1015.94 1016.04 1016.24 1016.54 1016.84 1016.59 1016.91 1016.82
1002.27 1002.17 1001.94 1001.10 1000.66 1000.04 999.63 998.57 998.20 998.77 998.62 998.52 998.64 999.05 999.66 1000.34 1001.08 1001.98 1002.88 1003.84 1004.77 1005.76 1006.65 1007.64 1008.46 1009.38 1010.12 1010.76 1011.33 1011.92 1012.46 1013.02 1013.68 1013.92 1014.34 1014.70 1014.99 1015.16 1015.45 1015.55 1015.52 1015.61 1015.76 1015.91 1016.14 1016.35 1016.35 1016.45 1016.58
1001.01 1000.65 1000.89 1000.49 1000.57 1000.48 1000.11 998.94 998.53 998.60 998.34 998.41 998.56 998.94 999.74 1000.43 1000.75 1001.73 1002.65 1003.63 1004.34 1005.22 1005.91 1006.88 1007.72 1008.49 1009.32 1009.96 1010.84 1011.21 1011.89 1012.30 1012.64 1013.12 1013.44 1013.96 1014.37 1014.69 1014.90 1015.10 1015.16 1015.25 1015.35 1015.49 1015.64 1015.75 1015.56 1015.56 1015.61
Wind_Speed
10 8 2 5 6 4 5 7 4 7 6 5 3 4 6 8 7 4 9 10 20 17 14 14 13 14 13 13 12 12 11 10 9 9 8 8 9 10 9 8 10 11 11 11 11 12 11 12 12
5 1 5 2 4 4 4 4 10 11 9 8 6 3 0 7 7 8 12 12 20 18 12 13 11 12 14 12 12 11 11 9 9 9 8 8 9 9 9 9 8 11 13 11 11 11 11 12 12
3 4 5 1 2 3 7 9 9 8 4 0 2 3 3 5 6 11 11 17 19 18 15 9 11 12 13 12 11 10 9 7 7 8 7 7 8 9 10 9 11 10 12 11 11 11 11 11 11
4 5 5 3 9 4 11 7 7 6 6 3 2 5 6 2 8 7 16 16 14 15 15 15 13 11 12 11 12 10 8 6 4 7 8 8 9 10 10 10 11 11 12 11 10 9 9 8 7
4 3 2 5 7 5 3 2 3 4 4 2 2 5 6 5 7 15 16 13 14 13 14 15 14 14 10 13 12 9 7 7 6 7 8 9 9 11 10 12 11 11 10 9 8 7 6 5 4
4 3 5 5 8 4 3 2 4 2 2 5 3 6 7 8 11 13 14 13 14 11 12 11 12 14 12 11 11 11 8 8 9 7 8 8 9 11 12 12 11 10 9 8 6 5 4 4 2
6 3 2 4 7 6 5 4 4 3 3 3 5 3 7 10 11 12 12 13 12 11 12 5 8 11 11 11 10 9 8 7 8 8 7 9 10 11 13 12 10 8 8 7 5 4 4 3 3
4 4 4 1 4 5 4 3 3 2 5 7 1 3 7 13 12 13 11 12 12 9 11 12 8 9 8 5 8 8 5 7 7 6 9 9 11 10 12 10 9 8 7 5 4 2 1 3 5
2 3 7 5 2 5 3 3 2 2 6 1 3 2 7 17 15 14 13 13 11 10 12 12 12 8 9 5 8 8 7 5 6 8 8 10 6 10 13 12 9 6 4 2 2 3 2 5 11
4 4 6 4 4 1 1 2 6 6 8 5 5 6 15 18 15 15 14 13 14 13 9 8 8 11 10 8 6 7 8 5 3 1 7 5 4 6 9 8 6 5 3 4 5 6 7 10 3
2 5 5 3 5 1 0 2 3 3 5 1 6 13 17 16 15 13 12 12 14 13 10 10 8 6 9 6 7 4 4 2 1 3 5 6 5 8 6 6 7 7 7 5 8 8 6 3 5
5 3 3 4 2 3 5 1 3 4 5 2 10 15 16 17 14 13 12 11 11 12 11 10 10 7 8 6 6 5 3 2 2 2 5 4 5 4 4 3 5 4 3 2 1 2 4 5 5
4 5 2 1 3 2 3 7 7 4 3 8 13 14 15 14 12 10 9 10 10 12 11 6 10 8 8 7 6 4 3 2 3 4 5 4 4 3 5 4 3 1 1 1 1 2 3 4 6
6 5 1 0 1 1 5 3 5 4 8 10 13 13 13 13 12 10 10 10 12 11 12 10 11 9 9 7 8 5 4 9 6 6 4 4 3 4 5 5 4 3 1 2 1 2 3 5 6
3 7 3 2 1 0 4 9 6 4 10 11 13 12 13 12 11 11 11 10 11 11 12 15 11 12 10 10 6 5 3 6 5 3 2 5 5 5 1 3 4 2 2 3 2 3 3 4 4
8 5 2 5 0 3 6 5 4 7 11 12 14 12 12 14 13 11 11 11 11 10 11 13 12 14 12 11 7 7 6 4 3 1 5 6 5 4 4 4 3 2 2 2 1 2 4 3 3
7 7 5 2 1 1 5 9 6 8 11 12 13 14 13 13 13 13 12 11 12 11 12 12 12 12 13 11 9 9 6 6 5 6 6 6 5 5 4 2 2 3 1 2 3 1 3 4 4
2 5 2 5 3 6 9 10 6 10 12 12 13 14 14 15 16 15 15 14 12 12 12 12 11 12 12 9 9 8 8 6 6 5 5 6 5 5 5 4 3 4 2 1 1 3 3 4 4
6 10 11 8 5 7 8 11 9 7 13 13 14 15 16 16 16 15 15 15 15 14 14 13 12 13 10 9 10 9 8 6 6 5 5 6 5 6 5 3 4 3 3 3 2 3 2 4 4
11 12 12 3 0 9 14 17 8 9 13 15 16 16 18 17 16 16 17 16 16 16 15 14 14 13 12 9 9 6 7 4 7 5 6 8 7 6 6 3 4 2 3 2 3 3 4 2 4
15 15 12 11 11 15 10 14 5 5 9 12 15 16 18 19 19 18 18 18 17 17 17 16 15 15 14 13 7 5 6 4 7 7 4 8 8 8 8 6 5 3 5 5 3 3 2 5 2
15 12 12 12 9 9 1 11 6 4 6 11 14 18 19 20 20 19 19 18 18 17 17 17 16 16 15 15 11 12 5 7 4 8 7 8 8 8 9 8 7 6 4 1 4 5 5 3 3
15 13 11 10 11 10 14 8 9 7 9 9 13 17 18 19 20 21 21 21 19 18 17 17 17 16 16 16 13 12 12 11 10 8 7 8 6 8 9 8 8 8 7 6 5 5 4 3 5
9 10 10 9 11 13 15 10 8 2 3 6 10 1 12 19 21 21 21 20 18 17 17 17 18 17 17 16 16 15 15 11 9 9 8 8 8 9 10 10 9 8 8 7 7 7 7 7 5
11 13 9 11 11 12 2 7 11 14 12 11 10 10 6 13 20 22 23 20 18 19 19 17 19 18 18 18 17 17 15 15 12 9 10 8 8 7 10 10 10 9 9 8 8 7 8 7 8
17 16 12 10 11 9 7 6 6 6 12 11 9 9 6 8 17 21 22 20 20 20 20 19 20 19 19 19 18 15 16 12 12 12 10 9 9 9 9 9 10 11 10 9 8 8 8 9 7
14 12 17 19 14 11 13 16 9 11 8 7 10 4 4 6 12 20 22 21 21 20 21 21 20 20 20 20 17 17 15 16 13 13 12 10 9 7 7 9 10 10 10 9 9 6 10 8 7
16 8 11 11 16 16 11 9 8 7 6 6 3 3 3 4 11 16 19 21 19 18 20 21 20 20 19 19 17 16 17 17 15 13 13 12 11 10 9 9 10 10 10 10 10 9 11 10 9
9 13 14 14 10 10 11 9 8 4 8 8 7 5 5 5 11 14 17 18 19 19 19 19 19 18 18 18 17 17 16 17 15 14 13 13 12 12 11 11 10 10 10 10 9 9 9 10 10
14 14 20 13 17 12 10 12 12 6 10 10 10 6 3 3 11 14 17 18 18 18 18 19 18 18 17 15 13 17 15 15 16 15 15 14 13 13 12 12 12 11 11 11 11 12 12 12 12
Wind_Direction
174 184 239 233 240 256 108 80 111 114 128 71 25 353 15 20 1 44 127 137 153 151 152 160 149 149 136 131 125 125 128 132 136 130 125 128 124 117 111 104 103 103 107 97 94 92 97 100 104
133 165 231 266 242 98 85 86 79 74 92 121 128 202 98 79 59 123 138 166 154 144 161 136 152 150 137 136 134 136 136 141 145 129 137 134 126 122 116 111 116 101 104 98 99 103 104 106 106
160 246 272 52 228 104 101 98 106 99 96 102 85 1 14 58 108 132 122 159 162 146 170 148 148 148 142 144 138 137 135 146 141 139 137 135 129 126 117 121 110 108 103 105 106 104 105 102 100
219 188 218 254 106 79 111 111 122 126 102 56 59 97 103 64 134 141 143 161 149 147 161 138 151 148 152 151 144 141 140 145 101 144 143 139 132 124 123 114 107 104 101 102 103 101 99 96 90
223 232 231 138 104 110 107 75 143 136 84 61 308 100 88 89 109 135 142 161 143 164 144 155 164 164 170 166 153 152 149 146 178 155 145 136 133 121 124 108 111 104 106 104 105 103 101 96 87
224 278 212 138 97 92 117 131 166 126 64 100 125 124 103 116 143 149 153 156 138 169 145 145 164 166 170 170 169 159 164 159 161 148 143 133 125 120 116 113 109 107 107 101 90 77 58 41 29
325 318 35 123 107 104 88 123 162 109 100 89 118 136 103 151 136 152 155 122 164 148 138 162 185 161 167 170 167 161 162 152 145 149 140 124 127 131 119 115 114 117 110 99 88 70 45 5 333
313 276 127 159 171 104 122 109 150 232 81 111 151 96 159 142 153 147 155 152 147 156 143 171 196 154 143 169 151 140 139 147 146 146 128 134 137 127 116 128 118 118 116 117 117 100 20 303 290
318 288 46 57 249 107 133 192 141 127 145 175 59 10 117 140 154 155 158 161 153 164 169 169 154 147 138 146 126 134 83 95 135 153 131 156 163 165 171 79 121 129 127 139 192 202 231 269 248
295 330 21 1 342 284 70 316 157 196 164 166 115 108 130 153 163 166 165 165 166 166 163 157 152 145 143 130 130 113 91 71 314 169 148 130 178 91 98 115 137 141 182 205 231 242 237 231 286
56 334 359 34 347 262 239 224 171 252 198 173 140 145 154 162 170 173 174 173 172 160 166 154 139 142 139 144 123 106 84 75 329 146 159 164 167 161 175 139 167 165 201 192 207 203 231 10 308
294 8 308 350 340 211 233 325 245 243 26 57 126 152 161 173 176 178 182 172 162 168 162 169 147 148 145 130 112 107 77 34 19 236 178 148 191 162 148 163 124 195 157 132 240 321 349 301 305
284 350 348 261 320 230 245 234 276 230 142 133 135 157 168 179 175 178 174 167 172 175 152 170 149 151 140 142 128 114 112 141 238 220 202 173 172 159 184 142 175 192 162 85 295 322 346 320 272
342 343 321 300 29 114 250 223 241 132 149 149 156 164 169 177 176 170 181 175 179 183 170 164 168 156 141 145 154 143 178 165 188 200 169 204 213 169 158 165 179 163 256 79 350 10 322 306 320
296 296 234 138 8 247 283 218 232 137 171 168 172 170 165 175 175 181 182 180 185 182 174 172 188 164 168 152 160 153 193 200 169 184 181 212 202 165 198 188 201 152 125 239 219 256 237 277 307
273 248 297 88 142 119 269 8 47 167 185 177 179 173 176 176 179 180 182 184 174 178 175 182 190 179 178 154 169 207 181 214 166 208 201 177 190 194 200 191 177 83 223 240 305 322 301 291 306
205 298 341 88 185 249 259 333 105 184 197 185 186 179 187 181 187 180 181 185 170 176 172 184 190 192 185 179 183 187 209 201 205 183 218 175 192 170 230 218 152 222 214 250 302 40 322 324 323
308 287 286 328 75 265 285 283 281 188 213 211 194 193 192 193 191 184 185 181 179 174 175 182 186 185 186 176 192 195 173 177 226 203 197 182 195 181 207 147 160 242 227 224 332 334 4 313 350
280 289 288 293 315 295 306 301 285 224 208 212 209 201 201 203 189 181 188 181 176 180 182 186 188 178 182 186 188 188 182 181 221 186 239 221 212 195 196 191 188 232 255 354 254 253 203 301 6
250 268 274 331 19 297 315 306 275 216 214 212 207 207 209 203 191 191 189 189 187 181 182 184 189 181 192 186 197 190 180 170 218 195 232 226 209 209 209 235 197 206 209 233 289 329 310 250 57
241 262 288 305 304 277 284 280 191 166 210 220 216 214 212 206 197 191 196 195 189 184 184 181 184 181 191 181 179 151 189 144 205 208 206 215 223 213 220 206 258 200 269 184 225 230 338 343 320
253 251 274 282 274 280 72 296 268 229 228 211 217 217 216 209 202 194 195 198 197 192 184 180 181 183 189 189 186 187 187 198 199 222 189 212 215 213 209 210 214 229 264 293 225 225 301 278 307
262 272 263 270 268 283 271 246 278 198 254 247 204 215 219 216 208 202 194 196 200 188 187 181 181 182 186 187 198 186 205 198 193 221 193 226 192 214 215 207 214 219 231 203 255 245 241 269 288
259 221 225 245 254 257 254 245 279 71 219 303 307 211 202 212 209 206 201 195 195 188 188 184 181 182 186 190 199 199 196 217 206 205 197 214 205 194 211 212 217 222 232 232 232 229 234 256 279
202 222 230 216 220 254 57 258 270 300 293 281 293 293 240 205 206 200 201 193 189 187 188 186 184 187 187 190 195 203 206 205 210 218 216 234 216 213 194 213 217 218 223 238 238 225 257 240 256
208 240 252 242 251 268 124 250 240 276 296 292 281 265 267 221 198 200 198 191 188 189 188 190 186 191 189 192 196 200 206 208 215 214 243 229 238 220 220 200 216 218 228 227 232 235 235 238 241
222 233 253 273 259 263 275 273 253 259 292 270 233 239 265 225 203 195 189 191 189 190 188 190 190 194 194 194 194 197 203 217 211 221 214 229 234 243 235 229 222 220 219 227 237 241 259 252 260
255 280 213 231 265 268 268 264 265 294 349 327 239 235 306 221 199 193 190 189 188 190 192 193 191 193 195 199 197 198 202 208 214 208 215 222 227 228 248 229 224 225 224 228 232 236 241 241 248
179 228 235 280 281 284 281 272 39 258 291 302 299 319 298 281 193 196 189 189 189 190 191 194 193 191 197 200 200 204 204 205 208 208 210 216 224 225 227 237 238 235 235 235 235 243 272 264 255
287 227 224 229 235 233 276 283 300 278 306 316 301 301 320 251 198 188 186 189 190 190 193 191 194 193 197 197 200 203 207 209 205 212 211 213 221 225 228 232 235 243 244 243 239 241 258 253 248